Weather History for Big Bear City, CA

Change the Weather History Date:

Monday, July 22, 2013

  Actual Average (KBUO) Record (KBUO)
Temperature  
Mean Temperature 60 °F -  
Max Temperature 68 °F 91 °F 95 °F (1996)
Min Temperature 51 °F 59 °F 53 °F (1999)
Degree Days  
Heating Degree Days 6    
Growing Degree Days 10 (Base 50)    
Moisture  
Dew Point 54 °F    
Average Humidity 85    
Maximum Humidity 100    
Minimum Humidity 64    
Precipitation  
Precipitation 1.44 in - - ()
Sea Level Pressure  
Sea Level Pressure 30.26 in    
Wind  
Wind Speed 2 mph (WSW)    
Max Wind Speed 13 mph    
Max Gust Speed 17 mph    
Visibility 8 miles    
Events Rain    
Averages and records for this station are not official NWS values.
T = Trace of Precipitation, MM = Missing Value Source: NWS Daily Summary

Daily Weather History Graph

Daily Weather History Graph

Search for Another Location

Airport:

Trip Planner

Search our weather history database for the weather conditions in past years. The results will help you decide how hot, cold, wet, or windy it might be!

Date:

Astronomy

Jul. 22, 2013 Rise Set
Actual Time 5:51 AM PDT 7:55 PM PDT
Civil Twilight 5:23 AM PDT 8:24 PM PDT
Nautical Twilight 4:48 AM PDT 8:58 PM PDT
Astronomical Twilight 4:12 AM PDT 9:35 PM PDT
Moon 7:50 PM PDT (7/22) 5:50 AM PDT (7/22)
Length of Visible Light 15h 00m
Length of Day
14h 04m
Full, 100% of the Moon is Illuminated
Jul 22
Full
Jul 29
Last Quarter
Aug 6
New
Aug 14
First Quarter
Aug 20
Full

Hourly Weather History & Observations

Time (PDT) Temp. Dew Point Humidity Pressure Visibility Wind Dir Wind Speed Gust Speed Precip Events Conditions
12:15 AM 59.0 °F 55.4 °F 88% 30.25 in 10.0 mi Calm Calm - N/A   Mostly Cloudy
12:35 AM 59.0 °F 55.4 °F 88% 30.25 in 10.0 mi Calm Calm - N/A   Scattered Clouds
12:55 AM 59.0 °F 55.4 °F 88% 30.24 in 10.0 mi Calm Calm - N/A   Mostly Cloudy
1:15 AM 59.0 °F 55.4 °F 88% 30.24 in 10.0 mi Calm Calm - N/A   Scattered Clouds
1:35 AM 57.2 °F 55.4 °F 94% 30.24 in 7.0 mi Calm Calm - N/A   Clear
1:55 AM 57.2 °F 55.4 °F 94% 30.23 in 7.0 mi Calm Calm - N/A   Clear
2:15 AM 55.4 °F 53.6 °F 94% 30.23 in 7.0 mi Calm Calm - N/A   Clear
2:35 AM 55.4 °F 53.6 °F 94% 30.23 in 7.0 mi Calm Calm - N/A   Clear
2:55 AM 53.6 °F 53.6 °F 100% 30.23 in 7.0 mi Calm Calm - N/A   Clear
3:15 AM 53.6 °F 51.8 °F 94% 30.22 in 7.0 mi Calm Calm - N/A   Clear
3:35 AM 53.6 °F 51.8 °F 94% 30.21 in 7.0 mi Calm Calm - N/A   Clear
3:55 AM 51.8 °F 51.8 °F 100% 30.20 in 7.0 mi Calm Calm - N/A   Clear
4:15 AM 51.8 °F 50.0 °F 94% 30.20 in 7.0 mi Calm Calm - N/A   Clear
4:35 AM 51.8 °F 50.0 °F 94% 30.21 in 10.0 mi Calm Calm - N/A   Clear
4:55 AM 51.8 °F 50.0 °F 94% 30.21 in 10.0 mi Calm Calm - N/A   Clear
5:15 AM 51.8 °F 50.0 °F 94% 30.22 in 10.0 mi Calm Calm - N/A   Scattered Clouds
5:35 AM 51.8 °F 51.8 °F 100% 30.23 in 10.0 mi Calm Calm - N/A   Scattered Clouds
5:55 AM 51.8 °F 50.0 °F 94% 30.23 in 7.0 mi Calm Calm - N/A   Scattered Clouds
6:35 AM 53.6 °F 51.8 °F 94% 30.23 in 10.0 mi Calm Calm - N/A   Clear
7:35 AM 59.0 °F 53.6 °F 82% 30.24 in 10.0 mi WNW 4.6 mph - N/A   Clear
7:55 AM 60.8 °F 53.6 °F 77% 30.25 in 10.0 mi West 5.8 mph - N/A   Clear
8:15 AM 62.6 °F 53.6 °F 72% 30.26 in 10.0 mi West 5.8 mph - N/A   Clear
8:35 AM 64.4 °F 53.6 °F 68% 30.26 in 10.0 mi West 4.6 mph - N/A   Clear
8:55 AM 64.4 °F 53.6 °F 68% 30.26 in 10.0 mi West 4.6 mph - N/A   Clear
9:15 AM 66.2 °F 53.6 °F 64% 30.26 in 10.0 mi West 5.8 mph - N/A   Clear
9:35 AM 68.0 °F 55.4 °F 64% 30.26 in 10.0 mi East 9.2 mph - N/A   Clear
9:55 AM 68.0 °F 55.4 °F 64% 30.27 in 10.0 mi East 10.4 mph - N/A   Scattered Clouds
10:15 AM 68.0 °F 55.4 °F 64% 30.27 in 10.0 mi East 11.5 mph - N/A   Scattered Clouds
10:35 AM 68.0 °F 55.4 °F 64% 30.28 in 10.0 mi East 8.1 mph - N/A   Scattered Clouds
10:55 AM 68.0 °F 55.4 °F 64% 30.28 in 10.0 mi East 11.5 mph - N/A   Scattered Clouds
11:15 AM 68.0 °F 55.4 °F 64% 30.28 in 10.0 mi East 10.4 mph - N/A   Scattered Clouds
11:35 AM 68.0 °F 55.4 °F 64% 30.28 in 10.0 mi East 6.9 mph - N/A   Scattered Clouds
11:55 AM 68.0 °F 55.4 °F 64% 30.29 in 10.0 mi ENE 4.6 mph - N/A   Mostly Cloudy
12:15 PM 64.4 °F 55.4 °F 73% 30.29 in 10.0 mi SW 3.5 mph - N/A   Overcast
12:35 PM 64.4 °F 55.4 °F 73% 30.28 in 10.0 mi SE 5.8 mph - N/A   Overcast
12:55 PM 60.8 °F 53.6 °F 77% 30.30 in 7.0 mi SW 6.9 mph - 0.04 in Rain Rain
1:15 PM 57.2 °F 53.6 °F 88% 30.29 in 7.0 mi WSW 6.9 mph - 0.07 in Rain Rain
1:35 PM 53.6 °F 51.8 °F 94% 30.30 in 0.5 mi West 12.7 mph 17.3 mph 0.54 in Rain Heavy Rain
1:55 PM 51.8 °F 50.0 °F 94% 30.30 in 1.0 mi North 6.9 mph - 0.93 in Rain Rain
2:15 PM 51.8 °F 51.8 °F 100% 30.30 in 1.8 mi SE 3.5 mph - 0.32 in Rain Heavy Rain
2:35 PM 53.6 °F 51.8 °F 94% 30.30 in 2.0 mi Calm Calm - 0.43 in Rain Heavy Rain
2:55 PM 55.4 °F 53.6 °F 94% 30.29 in 10.0 mi North 3.5 mph - 0.44 in   Overcast
3:15 PM 59.0 °F 55.4 °F 88% 30.28 in 10.0 mi Calm Calm - N/A   Scattered Clouds
3:35 PM 60.8 °F 57.2 °F 88% 30.28 in 10.0 mi WSW 3.5 mph - N/A   Clear
3:55 PM 60.8 °F 57.2 °F 88% 30.27 in 10.0 mi Calm Calm - N/A Rain Rain
4:15 PM 64.4 °F 59.0 °F 83% 30.27 in 10.0 mi WNW 4.6 mph - N/A   Scattered Clouds
4:35 PM 64.4 °F 59.0 °F 83% 30.26 in 10.0 mi Calm Calm - N/A Rain Light Rain
4:55 PM 68.0 °F 57.2 °F 68% 30.25 in 10.0 mi Calm Calm - N/A   Clear
5:15 PM 66.2 °F 59.0 °F 78% 30.24 in 10.0 mi WSW 4.6 mph - N/A   Scattered Clouds
5:35 PM 68.0 °F 57.2 °F 68% 30.24 in 7.0 mi SSW 3.5 mph - N/A   Scattered Clouds
5:55 PM 64.4 °F 55.4 °F 73% 30.24 in 7.0 mi SW 3.5 mph - N/A   Mostly Cloudy
6:15 PM 64.4 °F 55.4 °F 73% 30.24 in 7.0 mi West 10.4 mph - N/A   Scattered Clouds
6:35 PM 62.6 °F 55.4 °F 77% 30.25 in 10.0 mi West 10.4 mph - N/A   Scattered Clouds
6:55 PM 62.6 °F 55.4 °F 77% 30.26 in 7.0 mi WSW 5.8 mph - N/A   Mostly Cloudy
7:15 PM 60.8 °F 55.4 °F 82% 30.27 in 7.0 mi WSW 4.6 mph - N/A   Overcast
7:35 PM 60.8 °F 55.4 °F 82% 30.27 in 5.0 mi WSW 3.5 mph - 0.01 in Rain Light Rain
7:55 PM 60.8 °F 57.2 °F 88% 30.28 in 4.0 mi West 3.5 mph - 0.03 in Rain Light Rain
8:15 PM 59.0 °F 57.2 °F 94% 30.28 in 5.0 mi Calm Calm - N/A   Light Drizzle
8:35 PM 59.0 °F 55.4 °F 88% 30.28 in 5.0 mi Calm Calm - N/A   Scattered Clouds
8:55 PM 59.0 °F 57.2 °F 94% 30.29 in 5.0 mi Calm Calm - N/A   Mostly Cloudy
9:15 PM 59.0 °F 57.2 °F 94% 30.30 in 4.0 mi Calm Calm - N/A   Mostly Cloudy
9:35 PM 59.0 °F 57.2 °F 94% 30.31 in 4.0 mi Calm Calm - N/A   Scattered Clouds
9:55 PM 59.0 °F 55.4 °F 88% 30.31 in 4.0 mi Calm Calm - N/A   Scattered Clouds
10:15 PM 57.2 °F 55.4 °F 94% 30.31 in 5.0 mi Calm Calm - N/A   Scattered Clouds
10:35 PM 55.4 °F 55.4 °F 100% 30.30 in 5.0 mi Calm Calm - N/A   Clear
10:55 PM 55.4 °F 53.6 °F 94% 30.30 in 5.0 mi Calm Calm - N/A   Clear
11:15 PM 55.4 °F 53.6 °F 94% 30.30 in 4.0 mi Calm Calm - N/A   Clear
11:35 PM 55.4 °F 53.6 °F 94% 30.30 in 3.0 mi Calm Calm - N/A   Clear
11:55 PM 53.6 °F 53.6 °F 100% 30.29 in 5.0 mi Calm Calm - N/A   Clear